TimeCST,TemperatureF,Dew PointF,Humidity,Sea Level PressureIn,VisibilityMPH,Wind Direction,Wind SpeedMPH,Gust SpeedMPH,PrecipitationIn,Events,Conditions,WindDirDegrees,DateUTC
12:56 AM,29.1,19.0,66,29.86,10.0,SSW,5.8,-,0.00,,Overcast,200,2012-11-25 06:56:00
1:25 AM,28.4,19.4,69,29.83,8.0,SW,5.8,-,0.00,,Overcast,220,2012-11-25 07:25:00
1:56 AM,28.0,20.1,72,29.86,7.0,SW,8.1,-,0.00,,Mostly Cloudy,230,2012-11-25 07:56:00
2:56 AM,28.0,20.1,72,29.85,10.0,Calm,Calm,-,0.00,,Overcast,0,2012-11-25 08:56:00
3:56 AM,28.0,19.0,69,29.83,10.0,Calm,Calm,-,N/A,,Overcast,0,2012-11-25 09:56:00
4:56 AM,28.0,19.0,69,29.84,10.0,Calm,Calm,-,N/A,,Overcast,0,2012-11-25 10:56:00
5:56 AM,28.0,20.1,72,29.83,10.0,Calm,Calm,-,N/A,,Overcast,0,2012-11-25 11:56:00
6:56 AM,28.0,20.1,72,29.85,10.0,Calm,Calm,-,N/A,,Overcast,0,2012-11-25 12:56:00
7:56 AM,27.1,20.1,75,29.87,10.0,Calm,Calm,-,N/A,,Mostly Cloudy,0,2012-11-25 13:56:00
8:56 AM,31.1,20.1,64,29.88,10.0,WNW,10.4,-,N/A,,Scattered Clouds,300,2012-11-25 14:56:00
9:56 AM,32.0,20.1,62,29.89,10.0,WNW,9.2,-,N/A,,Overcast,290,2012-11-25 15:56:00
10:56 AM,32.0,20.1,62,29.90,10.0,NW,13.8,-,N/A,,Overcast,310,2012-11-25 16:56:00
11:56 AM,34.0,20.1,57,29.90,10.0,NNW,13.8,20.7,N/A,,Mostly Cloudy,330,2012-11-25 17:56:00
12:06 PM,33.8,19.4,56,29.88,10.0,NW,12.7,-,N/A,,Scattered Clouds,320,2012-11-25 18:06:00
12:56 PM,34.9,20.1,55,29.90,10.0,West,10.4,-,N/A,,Clear,280,2012-11-25 18:56:00
1:56 PM,36.9,19.0,49,29.89,10.0,NW,13.8,-,N/A,,Clear,310,2012-11-25 19:56:00
2:56 PM,36.0,19.0,50,29.92,10.0,WNW,13.8,21.9,N/A,,Clear,290,2012-11-25 20:56:00
3:56 PM,34.0,19.0,54,29.94,10.0,NW,6.9,-,N/A,,Clear,320,2012-11-25 21:56:00
4:56 PM,30.0,19.0,64,29.96,10.0,North,9.2,-,N/A,,Clear,350,2012-11-25 22:56:00
5:56 PM,28.0,19.0,69,29.99,10.0,Calm,Calm,-,N/A,,Clear,0,2012-11-25 23:56:00
6:56 PM,29.1,20.1,69,30.00,10.0,West,4.6,-,N/A,,Mostly Cloudy,280,2012-11-26 00:56:00
7:56 PM,30.0,19.0,64,30.02,10.0,NW,16.1,21.9,N/A,,Mostly Cloudy,320,2012-11-26 01:56:00
8:56 PM,26.1,12.0,55,30.05,10.0,NNW,11.5,20.7,N/A,,Clear,340,2012-11-26 02:56:00
9:56 PM,24.1,13.1,63,30.09,10.0,Calm,Calm,-,N/A,,Clear,0,2012-11-26 03:56:00
10:56 PM,25.2,15.1,66,30.11,10.0,Calm,Calm,-,N/A,,Overcast,0,2012-11-26 04:56:00
11:56 PM,25.2,16.2,69,30.12,10.0,Calm,Calm,-,N/A,,Overcast,0,2012-11-26 05:56:00